Home   Weather   Jülich   Past weeks

Flag for Germany Past Weather in Jülich, North Rhine-Westphalia, Germany — Yesterday and Last 2 Weeks

Now
50 °F

Partly cloudy.


Feels Like: 43 °F
Forecast: 42 / 50 °F
Wind: 21 mph from Southwest

Location: Geilenkirchen Airport

Current Time: Feb 22, 2017 at 7:32:15 am

Latest Report: Feb 22, 2017 at 6:50 am


Visibility: 5 mi

Pressure: 29.80 "Hg

Humidity: 88%

Dew Point: 46 °F

Location of JülichLocation

Past Weather in Jülich — Graph

°F

Jülich Temperature Yesterday

Maximum temperature yesterday: 52 °F (at 11:50 am)
Minimum temperature yesterday: 48 °F (at 5:50 pm)
Average temperature yesterday: 50 °F

High & Low Weather Summary for the Past Weeks

 TemperatureHumidityPressure
High63 °F (Feb 15, 2:50 pm)100% (Feb 7, 10:50 am)30.51 "Hg (Feb 7, 10:50 am)
Low27 °F (Feb 10, 12:50 am)48% (Feb 15, 1:50 pm)29.80 "Hg (Feb 22, 5:50 am)
Average42 °F84%30.23 "Hg
* Reported Feb 7 5:50 am — Feb 22 5:50 am, Jülich, Weather by CustomWeather, © 2017

Note: Actual official high and low records may vary slightly from our data, if they occured in-between our weather recording intervals... More about our weather records

Advertising

Jülich Weather History for the Previous 24 Hours

Scroll right to see more
 ConditionsComfort  
Time TempWeatherWind HumidityBarometerVisibility
5:50 am
Wed, Feb 22
50 °FPartly cloudy.20 mph88%29.80 "Hg3 mi
4:50 am50 °FPartly cloudy.20 mph88%29.83 "HgN/A
3:50 am50 °FDrizzle. Mostly cloudy.24 mph94%29.86 "Hg3 mi
2:50 am50 °FPassing clouds.23 mph94%29.86 "HgN/A
1:50 am52 °FPassing clouds.21 mph88%29.86 "HgN/A
12:50 am52 °FLow clouds.20 mph88%29.89 "HgN/A
11:50 pm
Tue, Feb 21
50 °FPartly cloudy.22 mph94%29.92 "Hg3 mi
10:50 pm50 °FMostly cloudy.18 mph94%29.92 "HgN/A
9:50 pm50 °FDrizzle. Mostly cloudy.14 mph94%29.95 "Hg3 mi
8:50 pm50 °FPassing clouds.12 mph94%29.95 "Hg4 mi
7:50 pm50 °FPassing clouds.12 mph94%29.98 "Hg4 mi
6:50 pm48 °FPartly cloudy.7 mph100%30.01 "Hg4 mi
5:50 pm48 °FDrizzle. Broken clouds.5 mph100%30.01 "Hg2 mi
4:50 pm50 °FDrizzle. Partly sunny.13 mph88%30.01 "Hg4 mi
3:50 pm50 °FDrizzle. Partly sunny.10 mph94%30.01 "HgN/A
2:50 pm52 °FBroken clouds.13 mph88%30.01 "HgN/A
1:50 pm52 °FBroken clouds.13 mph88%30.04 "HgN/A
12:50 pm50 °FBroken clouds.10 mph94%30.04 "HgN/A
11:50 am52 °FSprinkles. Mostly cloudy.13 mph88%30.04 "Hg6 mi
10:50 am50 °FBroken clouds.15 mph94%30.04 "HgN/A
9:50 am50 °FLight rain. Cloudy.15 mph94%30.01 "Hg6 mi
8:50 am50 °FBroken clouds.12 mph94%30.01 "Hg5 mi
7:50 am50 °FBroken clouds.10 mph94%30.01 "Hg5 mi
Weather by CustomWeather, © 2017

See weather overviewHow to use our weather pages